100  
ASUS44 KSHV 171710  
RWRSHV  
 
WEATHER ROUNDUP FOR THE FOUR STATE AREA  
NATIONAL WEATHER SERVICE SHREVEPORT LA  
1100 AM CST SUN DEC 17 2017  
 
NOTE: "FAIR" INDICATES FEW OR NO CLOUDS BELOW 12000 FEET  
WITH NO SIGNIFICANT WEATHER AND/OR S TO VISIBILITY
.  
 
!LAZ001-LAZ014-TXZ097-171800  
SHREVEPORT...MONROE...TEXARKANA RADIOS  
 
CITY SKY/WX TMP DP RH WIND PRES REMARKS
 
SHREVEPORT CLOUDY 47 47 100 CALM 30.10F FOG  
MONROE FOG N/A N/A N/A CALM 30.14S VSB 1/4  
NATCHITOCHES FOG 49 48 99 CALM 30.13S VSB<1/4  
TEXARKANA FOG 44 44 100 E3 30.11F VSB 1/4  

 
 
!LAZ001-LAZ014-TXZ097-171800  
OTHER LOCATIONS...  
 
CITY SKY/WX TMP DP RH WIND PRES REMARKS
 
DOWNTOWN SHV FOG 47 46 97 NE3 30.11F VSB 1/2  
BOSSIER CITY CLOUDY 47 47 100 CALM 30.10F  
RUSTON FOG 46 44 96 CALM 30.15F VSB 1/4  
LITTLE ROCK CLOUDY 44 44 100 CALM 30.14F FOG  
EL DORADO FOG 44 44 100 W3 30.14S VSB 3/4  
JACKSON PTSUNNY 55 51 86 E3 30.10F  
NEW ORLEANS RAIN 68 68 100 W5 30.14R FOG  
HOUSTON FOG 51 51 100 CALM 30.11S VSB<1/4  
LUFKIN CLOUDY 49 49 100 CALM 30.11S FOG  
TYLER CLOUDY 46 46 100 S7 30.11R  
DAL FT WORTH CLOUDY 49 45 86 S9 30.07S  

 
 
!TXZ136-TXZ165-171800  
TYLER...LUFKIN RADIOS  
 
CITY SKY/WX TMP DP RH WIND PRES REMARKS
 
TYLER CLOUDY 46 46 100 S7 30.11R  
GILMER N/A 45 45 100 CALM 30.11S FOG  
LONGVIEW FOG 46 46 100 CALM 30.10S VSB 1/4  
LUFKIN CLOUDY 49 49 100 CALM 30.11S FOG  

 
 
!TXZ136-TXZ165-171800  
OTHER LOCATIONS...  
 
CITY SKY/WX TMP DP RH WIND PRES REMARKS
 
NACOGDOCHES FOG 47 47 100 CALM 30.11F VSB 1/4  
BEAUMONT CLOUDY 58 55 90 N5 30.11S FOG  
HOUSTON FOG 51 51 100 CALM 30.11S VSB<1/4  
COLLEGE STN FOG 46 46 100 CALM 30.12F VSB 3/4  
AUSTIN CLOUDY 49 47 93 S7 30.14R FOG  
DAL FT WORTH CLOUDY 49 45 86 S9 30.07S  
TEXARKANA FOG 44 44 100 E3 30.11F VSB 1/4  
SHREVEPORT CLOUDY 47 47 100 CALM 30.10F FOG  
FORT POLK CLOUDY 53 52 97 CALM 30.11S  
LAKE CHARLES SUNNY 64 60 87 NW5 30.10S  

 
 
 
CLICK HERE TO GO TO PREVIOUS BULLETINS.

The Nexlab LA Page
The Nexlab TX Page
The Nexlab AR Page
The Nexlab OK Page Main Text Page